Change the Weather History Date:

Saturday, September 28, 2013

  Actual Average Record
Temperature  
Mean Temperature 78 °F -  
Max Temperature 87 °F 81 °F 102 °F (2012)
Min Temperature 68 °F 65 °F 57 °F (2001)
Cooling Degree Days 12    
Growing Degree Days 28 (Base 50)    
Moisture  
Dew Point 66 °F    
Average Humidity 73    
Maximum Humidity 93    
Minimum Humidity 48    
Precipitation  
Precipitation 0.00 in - - ()
Sea Level Pressure  
Sea Level Pressure 30.04 in    
Wind  
Wind Speed 3 mph (East)    
Max Wind Speed 8 mph    
Max Gust Speed -    
Visibility 10 miles    
Events      
Averages and records for this station are not official NWS values.
T = Trace of Precipitation, MM = Missing Value Source: NWS Daily Summary

Daily Weather History Graph

Daily Weather History Graph

Search for Another Location

Airport or City:

Trip Planner

Search our weather history database for the weather conditions in past years. The results will help you decide how hot, cold, wet, or windy it might be!

Date:

Astronomy

Sep. 28, 2013 Rise Set
Actual Time 6:51 AM CDT 6:48 PM CDT
Civil Twilight 6:28 AM CDT 7:12 PM CDT
Nautical Twilight 6:00 AM CDT 7:40 PM CDT
Astronomical Twilight 5:32 AM CDT 8:08 PM CDT
Moon 1:01 AM CDT (9/28) 2:47 PM CDT (9/28)
Length of Visible Light 12h 44m
Length of Day
11h 57m
Waning Crescent, 36% of the Moon is Illuminated
Sep 28
Waning Crescent
Oct 4
New
Oct 11
First Quarter
Oct 18
Full
Oct 26
Last Quarter

Hourly Weather History & Observations

Time (CDT) Temp. Heat Index Dew Point Humidity Pressure Visibility Wind Dir Wind Speed Gust Speed Precip Events Conditions
12:55 AM 77.0 °F - 66.0 °F 69% 30.02 in 10.0 mi ESE 5.8 mph - N/A   Clear
1:55 AM 77.0 °F - 66.0 °F 69% 30.02 in 10.0 mi ESE 4.6 mph - N/A   Clear
2:55 AM 73.0 °F - 68.0 °F 84% 30.01 in 10.0 mi Calm Calm - N/A   Mostly Cloudy
3:55 AM 71.1 °F - 66.9 °F 87% 30.01 in 10.0 mi Calm Calm - N/A   Partly Cloudy
4:55 AM 69.1 °F - 66.0 °F 90% 30.01 in 10.0 mi Calm Calm - N/A   Clear
5:55 AM 68.0 °F - 66.0 °F 93% 30.02 in 10.0 mi Calm Calm - N/A   Clear
6:13 AM 68.0 °F - 64.4 °F 88% 30.03 in 10.0 mi Calm Calm - N/A   Scattered Clouds
6:55 AM 68.0 °F - 66.0 °F 93% 30.04 in 10.0 mi Calm Calm - N/A   Scattered Clouds
7:55 AM 70.0 °F - 68.0 °F 93% 30.05 in 7.0 mi Calm Calm - N/A   Mostly Cloudy
8:55 AM 77.0 °F - 70.0 °F 79% 30.06 in 7.0 mi NNE 4.6 mph - N/A   Mostly Cloudy
9:55 AM 79.0 °F - 71.1 °F 77% 30.07 in 7.0 mi Calm Calm - N/A   Mostly Cloudy
10:55 AM 84.0 °F 87.8 °F 69.1 °F 61% 30.08 in 10.0 mi Calm Calm - 0.00 in   Mostly Cloudy
11:55 AM 82.9 °F 84.6 °F 64.9 °F 54% 30.07 in 10.0 mi Calm Calm - N/A   Mostly Cloudy
12:55 PM 87.1 °F 88.9 °F 64.9 °F 48% 30.06 in 10.0 mi East 5.8 mph - N/A   Mostly Cloudy
1:55 PM 86.0 °F 87.3 °F 64.0 °F 48% 30.04 in 10.0 mi East 6.9 mph - N/A   Mostly Cloudy
2:55 PM 84.9 °F 86.6 °F 64.9 °F 51% 30.02 in 10.0 mi East 8.1 mph - N/A   Mostly Cloudy
3:55 PM 84.9 °F 86.1 °F 64.0 °F 49% 30.01 in 10.0 mi East 8.1 mph - N/A   Mostly Cloudy
4:55 PM 82.9 °F 84.4 °F 64.0 °F 53% 30.01 in 10.0 mi ESE 8.1 mph - N/A   Mostly Cloudy
5:55 PM 82.0 °F 83.8 °F 64.9 °F 56% 30.00 in 10.0 mi ESE 6.9 mph - N/A   Mostly Cloudy
6:55 PM 80.1 °F 82.3 °F 66.9 °F 64% 30.01 in 10.0 mi ESE 5.8 mph - N/A   Mostly Cloudy
7:55 PM 75.9 °F - 66.0 °F 71% 30.03 in 10.0 mi East 4.6 mph - N/A   Scattered Clouds
8:55 PM 73.0 °F - 66.9 °F 81% 30.05 in 10.0 mi ENE 3.5 mph - N/A   Scattered Clouds
9:55 PM 72.0 °F - 68.0 °F 87% 30.06 in 10.0 mi NE 3.5 mph - N/A   Scattered Clouds
10:55 PM 70.0 °F - 66.9 °F 90% 30.06 in 10.0 mi Calm Calm - N/A   Scattered Clouds
11:55 PM 70.0 °F - 66.9 °F 90% 30.06 in 10.0 mi Calm Calm - N/A   Clear